When you browse on this site, cookies collect data to enhance your experience and personalize the content and advertising you see.
Visit our Privacy Policy to learn more. By continuing to use the site, you agree to this use of cookies and data.
  • In Hungary
  • List of Countries
  • For 7 days
  • Water Temperature
  • Weather Map
  • News
  • Weather Widgets
  • user-avatar
    Login

    Hourly Weather Cerinza

    Today, 12 December, Thursday

    Time Temperature Precipitation Wind Pressure Humidity
    00:00 +9°C° 0 mm 0 mps 543 mmHg 96%
    01:00 +9°C° 0 mm 0 mps 543 mmHg 96%
    02:00 +9°C° 0 mm 0 mps 543 mmHg 96%
    03:00 +9°C° 0 mm 0 mps 543 mmHg 97%
    04:00 +9°C° 0 mm 0 mps 543 mmHg 97%
    05:00 +9°C° 0 mm 0 mps 543 mmHg 97%
    06:00 +10°C° 0 mm 0 mps 544 mmHg 96%
    07:00 +10°C° 0 mm 0 mps 545 mmHg 95%
    08:00 +12°C° 0.1 mm 0 mps 546 mmHg 89%
    09:00 +14°C° 0.1 mm 0 mps 547 mmHg 83%
    10:00 +16°C° 0.1 mm 0 mps 548 mmHg 77%
    11:00 +18°C° 0.8 mm 1 mps 547 mmHg 78%
    12:00 +18°C° 0.8 mm 1 mps 547 mmHg 79%
    13:00 +18°C° 0.8 mm 1 mps 546 mmHg 80%
    14:00 +18°C° 1 mm 1 mps 546 mmHg 82%
    15:00 +16°C° 1 mm 1 mps 545 mmHg 84%
    16:00 +15°C° 1 mm 1 mps 544 mmHg 87%
    17:00 +14°C° 0.3 mm 1 mps 544 mmHg 90%
    18:00 +13°C° 0.3 mm 1 mps 543 mmHg 94%
    19:00 +11°C° 0.3 mm 1 mps 543 mmHg 97%
    20:00 +10°C° 0 mm 0 mps 543 mmHg 97%
    21:00 +9°C° 0 mm 0 mps 544 mmHg 97%
    22:00 +9°C° 0 mm 0 mps 544 mmHg 97%
    23:00 +9°C° 0 mm 0 mps 543 mmHg 97%

    Tomorrow, 13 December, Friday

    Time Temperature Precipitation Wind Pressure Humidity
    00:00 +9°C° 0 mm 0 mps 543 mmHg 96%
    01:00 +9°C° 0 mm 0 mps 543 mmHg 96%
    02:00 +8°C° 0 mm 0 mps 542 mmHg 96%
    03:00 +8°C° 0 mm 0 mps 542 mmHg 96%
    04:00 +8°C° 0 mm 0 mps 542 mmHg 96%
    05:00 +9°C° 0 mm 0 mps 543 mmHg 94%
    06:00 +9°C° 0 mm 0 mps 543 mmHg 93%
    07:00 +10°C° 0 mm 0 mps 544 mmHg 92%
    08:00 +12°C° 0 mm 0 mps 546 mmHg 82%
    09:00 +15°C° 0 mm 0 mps 547 mmHg 73%
    10:00 +19°C° 0 mm 1 mps 549 mmHg 63%
    11:00 +19°C° 0.2 mm 1 mps 548 mmHg 65%
    12:00 +19°C° 0.2 mm 1 mps 547 mmHg 66%
    13:00 +19°C° 0.2 mm 1 mps 547 mmHg 68%
    14:00 +18°C° 0.5 mm 1 mps 546 mmHg 74%
    15:00 +16°C° 0.5 mm 1 mps 545 mmHg 80%
    16:00 +15°C° 0.5 mm 1 mps 544 mmHg 86%
    17:00 +14°C° 0.3 mm 1 mps 544 mmHg 90%
    18:00 +13°C° 0.3 mm 1 mps 544 mmHg 93%
    19:00 +11°C° 0.3 mm 0 mps 543 mmHg 97%
    20:00 +10°C° 0.1 mm 0 mps 544 mmHg 97%
    21:00 +10°C° 0.1 mm 0 mps 544 mmHg 96%
    22:00 +9°C° 0.1 mm 0 mps 544 mmHg 96%
    23:00 +9°C° 0 mm 0 mps 544 mmHg 96%

    Day after tomorrow, 14 December, Saturday

    Time Temperature Precipitation Wind Pressure Humidity
    00:00 +9°C° 0 mm 0 mps 543 mmHg 96%
    01:00 +9°C° 0 mm 0 mps 543 mmHg 96%
    02:00 +9°C° 0 mm 0 mps 543 mmHg 96%
    03:00 +9°C° 0 mm 0 mps 543 mmHg 96%
    04:00 +9°C° 0 mm 0 mps 543 mmHg 96%
    05:00 +9°C° 0 mm 0 mps 543 mmHg 95%
    06:00 +9°C° 0 mm 0 mps 544 mmHg 95%
    07:00 +10°C° 0 mm 0 mps 545 mmHg 94%
    08:00 +12°C° 0 mm 0 mps 546 mmHg 87%
    09:00 +14°C° 0 mm 0 mps 547 mmHg 79%
    10:00 +16°C° 0 mm 0 mps 549 mmHg 72%
    11:00 +18°C° 0.6 mm 1 mps 548 mmHg 75%
    12:00 +18°C° 0.6 mm 1 mps 547 mmHg 77%
    13:00 +18°C° 0.6 mm 1 mps 546 mmHg 80%
    14:00 +16°C° 1.2 mm 1 mps 546 mmHg 84%
    15:00 +15°C° 1.2 mm 1 mps 545 mmHg 88%
    16:00 +14°C° 1.2 mm 1 mps 544 mmHg 92%
    17:00 +13°C° 0.7 mm 1 mps 544 mmHg 93%
    18:00 +11°C° 0.7 mm 0 mps 544 mmHg 95%
    19:00 +11°C° 0.7 mm 0 mps 544 mmHg 96%
    20:00 +10°C° 0.3 mm 0 mps 544 mmHg 96%
    21:00 +10°C° 0.3 mm 0 mps 545 mmHg 96%
    22:00 +10°C° 0.3 mm 0 mps 545 mmHg 95%
    23:00 +10°C° 0 mm 0 mps 545 mmHg 96%

    15 December, Sunday

    Time Temperature Precipitation Wind Pressure Humidity
    00:00 +10°C° 0 mm 0 mps 545 mmHg 96%
    01:00 +10°C° 0 mm 0 mps 544 mmHg 96%
    02:00 +9°C° 0 mm 0 mps 544 mmHg 96%
    03:00 +9°C° 0 mm 0 mps 544 mmHg 96%
    04:00 +8°C° 0 mm 0 mps 543 mmHg 97%
    05:00 +9°C° 0 mm 0 mps 544 mmHg 96%
    06:00 +10°C° 0 mm 0 mps 545 mmHg 95%
    07:00 +10°C° 0 mm 0 mps 545 mmHg 94%
    08:00 +12°C° 0.1 mm 0 mps 547 mmHg 87%
    09:00 +15°C° 0.1 mm 0 mps 548 mmHg 80%
    10:00 +19°C° 0.1 mm 1 mps 549 mmHg 73%
    11:00 +18°C° 0.9 mm 1 mps 549 mmHg 76%
    12:00 +18°C° 0.9 mm 1 mps 548 mmHg 79%
    13:00 +18°C° 0.9 mm 1 mps 547 mmHg 83%
    14:00 +16°C° 1.1 mm 1 mps 546 mmHg 86%
    15:00 +15°C° 1.1 mm 1 mps 545 mmHg 89%
    16:00 +14°C° 1.1 mm 1 mps 545 mmHg 92%
    17:00 +14°C° 1 mm 1 mps 545 mmHg 94%
    18:00 +12°C° 1 mm 0 mps 545 mmHg 96%
    19:00 +11°C° 1 mm 0 mps 545 mmHg 97%
    20:00 +11°C° 0.7 mm 0 mps 545 mmHg 97%
    21:00 +11°C° 0.7 mm 0 mps 545 mmHg 97%
    22:00 +11°C° 0.7 mm 0 mps 546 mmHg 96%
    23:00 +10°C° 0.3 mm 0 mps 545 mmHg 97%

    16 December, Monday

    Time Temperature Precipitation Wind Pressure Humidity
    00:00 +10°C° 0.3 mm 0 mps 545 mmHg 97%
    01:00 +10°C° 0.3 mm 0 mps 544 mmHg 97%
    02:00 +10°C° 0.1 mm 0 mps 544 mmHg 96%
    03:00 +10°C° 0.1 mm 0 mps 544 mmHg 96%
    04:00 +10°C° 0.1 mm 0 mps 544 mmHg 96%
    05:00 +10°C° 0 mm 0 mps 544 mmHg 95%
    06:00 +10°C° 0 mm 0 mps 545 mmHg 94%
    07:00 +11°C° 0 mm 0 mps 545 mmHg 93%
    08:00 +13°C° 0.1 mm 0 mps 547 mmHg 86%
    09:00 +15°C° 0.1 mm 0 mps 548 mmHg 78%
    10:00 +19°C° 0.1 mm 1 mps 549 mmHg 71%
    11:00 +19°C° 0.8 mm 1 mps 548 mmHg 75%
    12:00 +18°C° 0.8 mm 1 mps 547 mmHg 78%
    13:00 +18°C° 0.8 mm 1 mps 547 mmHg 82%
    14:00 +16°C° 1.4 mm 1 mps 546 mmHg 84%
    15:00 +16°C° 1.4 mm 1 mps 545 mmHg 87%
    16:00 +15°C° 1.4 mm 1 mps 544 mmHg 90%
    17:00 +13°C° 0.7 mm 0 mps 544 mmHg 92%
    18:00 +12°C° 0.7 mm 0 mps 544 mmHg 94%
    19:00 +11°C° 0.7 mm 0 mps 544 mmHg 96%
    20:00 +11°C° 0.5 mm 0 mps 544 mmHg 97%
    21:00 +11°C° 0.5 mm 0 mps 545 mmHg 97%
    22:00 +11°C° 0.5 mm 0 mps 545 mmHg 97%
    23:00 +11°C° 0.5 mm 0 mps 545 mmHg 97%

    17 December, Tuesday

    Time Temperature Precipitation Wind Pressure Humidity
    00:00 +10°C° 0.5 mm 0 mps 544 mmHg 97%
    01:00 +11°C° 0.5 mm 1 mps 544 mmHg 97%
    02:00 +11°C° 0.2 mm 1 mps 544 mmHg 96%
    03:00 +11°C° 0.2 mm 1 mps 544 mmHg 96%
    04:00 +11°C° 0.2 mm 1 mps 543 mmHg 95%
    05:00 +11°C° 0 mm 1 mps 544 mmHg 94%
    06:00 +12°C° 0 mm 1 mps 544 mmHg 92%
    07:00 +11°C° 0 mm 0 mps 545 mmHg 90%
    08:00 +14°C° 0.1 mm 1 mps 546 mmHg 81%
    09:00 +16°C° 0.1 mm 1 mps 547 mmHg 72%
    10:00 +19°C° 0.1 mm 1 mps 549 mmHg 63%
    11:00 +20°C° 0.4 mm 1 mps 548 mmHg 63%
    12:00 +20°C° 0.4 mm 1 mps 547 mmHg 64%
    13:00 +20°C° 0.4 mm 1 mps 547 mmHg 64%
    14:00 +19°C° 0.7 mm 1 mps 546 mmHg 72%
    15:00 +18°C° 0.7 mm 1 mps 545 mmHg 80%
    16:00 +16°C° 0.7 mm 1 mps 544 mmHg 88%
    17:00 +15°C° 0.8 mm 1 mps 544 mmHg 91%
    18:00 +14°C° 0.8 mm 1 mps 544 mmHg 93%
    19:00 +13°C° 0.8 mm 1 mps 544 mmHg 95%
    20:00 +11°C° 1.6 mm 0 mps 544 mmHg 96%
    21:00 +11°C° 1.6 mm 0 mps 544 mmHg 96%
    22:00 +10°C° 1.6 mm 0 mps 544 mmHg 96%
    23:00 +10°C° 0.8 mm 0 mps 544 mmHg 95%
    Show more